sat.trackr.live / text

‹ back to catalog

JILIN GAOFEN OBJECT B

NORAD 68692 · 2026-080B

PAYLOAD ACTIVE UNKNOWN

§ Identity

Operator
Country
PRC
Launch date
2026-04-14
Launch site
JSC
Launch vehicle
Mass (kg)
RCS (m²)

External: N2YO · Heavens-Above · Gunter

§ Orbital elements

Epoch: 2026-09-20T03:54:24.810624Z

Period
95.44 min
Inclination
97.6522°
Eccentricity
0.0018150
Mean motion
15.08795141 rev/d
Perigee alt
527.3 km
Apogee alt
552.4 km
Semi-major
6,918.0 km
B*
2.3431e-4
RAAN
338.4783°
Arg perigee
88.1208°
Mean anomaly
272.2099°
Rev number
2,398

§ Raw data

JILIN GAOFEN OBJECT B1 68692U 26080B   26263.16278716  .00003632  00000+0  23431-3 0  99932 68692  97.6522 338.4783 0018150  88.1208 272.2099 15.08795141 23986

JSON: /api/v1/satellites/68692 · /tle

For live sub-satellite position, see the globe view (requires WebGL).

§ Visibility from observer

Set your observer location to see the next 7 days of passes ≥ 10°. The values pass through the URL so the page stays shareable.

No JS? Fill the form by hand. The geolocation button needs JavaScript.